Regional Weather Roundup
Issued by NWS Bismarck, ND

Home | Current Version | Previous Version | Text Only | Print | Product List | Glossary On
Versions: 1 2 3 4 5 6 7 8 9 10 11 12 13 14 15 16 17 18 19 20 21 22 23 24 25 26 27 28 29 30 31 32 33 34 35 36 37 38 39 40 41 42 43 44 45 46 47 48 49 50
000
ASUS43 KBIS 200002
RWRBIS

NWR BROADCAST TEXT
NATIONAL WEATHER SERVICE BISMARCK ND
700 PM CDT THU APR 19 2018

NOTE: "FAIR" INDICATES FEW OR NO CLOUDS BELOW 12,000 FEET WITH NO
SIGNIFICANT WEATHER AND/OR OBSTRUCTIONS TO VISIBILITY.


CITY           SKY/WX    TMP DP  RH WIND       PRES   REMARKS
WILLISTON      NOT AVBL
MINOT          SUNNY     47  36  65 SE5       30.33F
MINOT AFB      SUNNY     47  37  69 SW7       30.32F
BISMARCK       SUNNY     53  33  46 E17       30.32S
DICKINSON      MOSUNNY   53  27  36 E13       30.23S
GARRISON         N/A     42  35  76 E8        30.32F
HETTINGER ARPT MOSUNNY   54  28  36 SE16      30.24S
JAMESTOWN      SUNNY     52  29  41 S7        30.35S
CARRINGTON     FAIR      52  32  46 SW6       30.38S
HAZEN          FAIR      50  39  66 E12       30.32S
LINTON           N/A    N/A N/A N/A SE12G17   30.32F
MANDAN         FAIR      52  34  50 E14       30.31S
OAKES            N/A     54  32  43 S5        30.37S
RUGBY          FAIR      48  37  66 S7        30.35S
STANLEY          N/A     41  41 100 SE9       30.35S FOG
TIOGA          FAIR      43  43 100 E13       30.33S
WATFORD CITY   FAIR      50  37  62 E15       30.27F
$$

CITY           SKY/WX    TMP DP  RH WIND       PRES   REMARKS
GRAND FORKS    FAIR      51  36  56 S13       30.37S
GRAND FORKS AF SUNNY     51  34  52 S14       30.37S
DEVILS LAKE    FAIR      51  32  48 SW5       30.37
FARGO          FAIR      53  34  48 N9        30.38S
CANDO          MOCLDY    50  34  53 W6        30.37F
CAVALIER         N/A     55  34  44 W9        30.35S
GRAFTON        MOCLDY    55  36  47 SE8       30.37S
GWINNER          N/A     54  32  43 CALM      30.37S
LANGDON        CLOUDY    52  37  58 W6        30.36S
ROLLA          FAIR      48  36  61 S8        30.35S
WALHALLA       FAIR      55  34  44 W6        30.36S
$$

CITY           SKY/WX    TMP DP  RH WIND       PRES   REMARKS
ABERDEEN       MOSUNNY   52  35  52 S14       30.38S
MOBRIDGE       SUNNY     56  34  43 S16       30.28F
BUFFALO          N/A     55  29  36 SE18G28   30.13R
RAPID CITY     PTSUNNY   54  33  45 E22       30.16S
GLASGOW        MOSUNNY   58  33  39 E26G33    30.15F
SIDNEY         PTSUNNY   55  34  45 E18       30.24S
WOLF POINT     MOSUNNY   57  34  41 E20G29    30.21S
GLENDIVE       PTSUNNY   58  24  27 E18       30.19R
MILES CITY     PTSUNNY   61  30  31 SE18      30.10S
BAKER          PTSUNNY   55  28  35 E25       30.18S
$$

CITY           SKY/WX    TMP DP  RH WIND       PRES   REMARKS
BILLINGS       PTSUNNY   61  29  29 E16       30.01S
GREAT FALLS    SUNNY     60  28  29 NW10      30.04S
$$





USA.gov is the U.S. government's official web portal to all federal, state and local government web resources and services.